Location: La Pernelle
(49.6188°N, 1.2999°W)
Time: 11:03:37
(UTC+00:00)

Cosmos 1954 Rocket - Pass Details

Date: 29 October 2021
Orbit: 751 x 782 km, 74.0° (Epoch: 26 November)

Event Time Altitude Azimuth Distance (km) Brightness Sun altitude
Rises 18:38:07 0° 337° (NNW) 3,243 7.6 -18.3°
Reaches altitude 10° 18:40:32 10° 341° (NNW) 2,318 6.7 -18.7°
Maximum altitude 18:45:46 66° 64° (ENE) 846 3.9 -19.6°
Enters shadow 18:48:32 28° 138° (SE) 1,423 5.0 -20.0°
